• In Uzbekistan
  • List of Countries
  • For 7 days
  • Water Temperature
  • Satellite Maps
  • Weather Map
  • Weather Widgets
  • user-avatar
    Login

    Hourly Weather Wiktoria

    Today, 6 December, Tuesday

    Time Temperature Precipitation Wind Pressure Humidity
    00:00 +18°C° 0 mm 1 mps 746 mmHg 57%
    01:00 +16°C° 0 mm 1 mps 746 mmHg 60%
    02:00 +16°C° 0 mm 1 mps 746 mmHg 64%
    03:00 +15°C° 0 mm 1 mps 746 mmHg 68%
    04:00 +15°C° 0 mm 1 mps 746 mmHg 74%
    05:00 +15°C° 0 mm 1 mps 746 mmHg 72%
    06:00 +16°C° 0 mm 1 mps 747 mmHg 70%
    07:00 +16°C° 0 mm 1 mps 747 mmHg 68%
    08:00 +20°C° 0 mm 1 mps 747 mmHg 58%
    09:00 +22°C° 0 mm 1 mps 747 mmHg 48%
    10:00 +23°C° 0 mm 1 mps 748 mmHg 41%
    11:00 +25°C° 0 mm 1 mps 747 mmHg 36%
    12:00 +26°C° 0 mm 1 mps 747 mmHg 32%
    13:00 +27°C° 0 mm 2 mps 746 mmHg 27%
    14:00 +28°C° 0 mm 2 mps 746 mmHg 25%
    15:00 +28°C° 0 mm 2 mps 746 mmHg 24%
    16:00 +26°C° 0 mm 1 mps 747 mmHg 29%
    17:00 +24°C° 0 mm 1 mps 747 mmHg 36%
    18:00 +22°C° 0 mm 1 mps 747 mmHg 44%
    19:00 +20°C° 0 mm 1 mps 747 mmHg 52%
    20:00 +19°C° 0 mm 1 mps 748 mmHg 54%
    21:00 +18°C° 0 mm 1 mps 748 mmHg 56%
    22:00 +16°C° 0 mm 1 mps 748 mmHg 60%
    23:00 +15°C° 0 mm 1 mps 748 mmHg 65%

    Tomorrow, 7 December, Wednesday

    Time Temperature Precipitation Wind Pressure Humidity
    00:00 +14°C° 0 mm 1 mps 748 mmHg 69%
    01:00 +13°C° 0 mm 1 mps 748 mmHg 74%
    02:00 +12°C° 0 mm 1 mps 748 mmHg 77%
    03:00 +12°C° 0 mm 1 mps 748 mmHg 79%
    04:00 +11°C° 0 mm 1 mps 748 mmHg 82%
    05:00 +13°C° 0 mm 1 mps 749 mmHg 73%
    06:00 +15°C° 0 mm 1 mps 749 mmHg 65%
    07:00 +15°C° 0 mm 0 mps 749 mmHg 56%
    08:00 +19°C° 0 mm 0 mps 749 mmHg 45%
    09:00 +22°C° 0 mm 0 mps 749 mmHg 35%
    10:00 +25°C° 0 mm 0 mps 749 mmHg 24%
    11:00 +28°C° 0 mm 1 mps 748 mmHg 21%
    12:00 +29°C° 0 mm 1 mps 748 mmHg 19%
    13:00 +30°C° 0 mm 2 mps 747 mmHg 16%
    14:00 +30°C° 0 mm 2 mps 746 mmHg 16%
    15:00 +31°C° 0 mm 2 mps 746 mmHg 15%
    16:00 +31°C° 0 mm 2 mps 745 mmHg 15%
    17:00 +28°C° 0 mm 1 mps 745 mmHg 26%
    18:00 +24°C° 0 mm 1 mps 744 mmHg 37%
    19:00 +19°C° 0 mm 0 mps 744 mmHg 48%
    20:00 +19°C° 0 mm 0 mps 744 mmHg 43%
    21:00 +20°C° 0 mm 1 mps 744 mmHg 38%
    22:00 +20°C° 0 mm 1 mps 744 mmHg 33%
    23:00 +20°C° 0 mm 1 mps 743 mmHg 33%

    Day after tomorrow, 8 December, Thursday

    Time Temperature Precipitation Wind Pressure Humidity
    00:00 +20°C° 0 mm 1 mps 743 mmHg 33%
    01:00 +20°C° 0 mm 1 mps 742 mmHg 32%
    02:00 +20°C° 0 mm 1 mps 741 mmHg 35%
    03:00 +19°C° 0 mm 2 mps 740 mmHg 37%
    04:00 +19°C° 0 mm 2 mps 739 mmHg 39%
    05:00 +20°C° 0.1 mm 2 mps 739 mmHg 40%
    06:00 +21°C° 0.1 mm 2 mps 739 mmHg 42%
    07:00 +22°C° 0.1 mm 3 mps 739 mmHg 43%
    08:00 +20°C° 2 mm 2 mps 738 mmHg 58%
    09:00 +19°C° 2 mm 2 mps 738 mmHg 73%
    10:00 +18°C° 2 mm 2 mps 738 mmHg 87%
    11:00 +18°C° 1.8 mm 2 mps 738 mmHg 88%
    12:00 +18°C° 1.8 mm 2 mps 738 mmHg 89%
    13:00 +18°C° 1.8 mm 3 mps 738 mmHg 90%
    14:00 +20°C° 0.1 mm 3 mps 738 mmHg 72%
    15:00 +21°C° 0.1 mm 4 mps 738 mmHg 54%
    16:00 +23°C° 0.1 mm 4 mps 738 mmHg 36%
    17:00 +21°C° 0 mm 4 mps 739 mmHg 42%
    18:00 +20°C° 0 mm 3 mps 739 mmHg 48%
    19:00 +18°C° 0 mm 3 mps 740 mmHg 53%
    20:00 +17°C° 0 mm 3 mps 741 mmHg 57%
    21:00 +16°C° 0 mm 3 mps 742 mmHg 60%
    22:00 +14°C° 0 mm 3 mps 743 mmHg 63%
    23:00 +14°C° 0 mm 2 mps 744 mmHg 65%

    9 December, Friday

    Time Temperature Precipitation Wind Pressure Humidity
    00:00 +13°C° 0 mm 2 mps 744 mmHg 67%
    01:00 +12°C° 0 mm 2 mps 745 mmHg 69%
    02:00 +12°C° 0 mm 2 mps 745 mmHg 69%
    03:00 +12°C° 0 mm 2 mps 746 mmHg 69%
    04:00 +10°C° 0 mm 2 mps 746 mmHg 70%
    05:00 +12°C° 0 mm 2 mps 747 mmHg 67%
    06:00 +11°C° 0 mm 3 mps 748 mmHg 64%
    07:00 +11°C° 0 mm 3 mps 748 mmHg 61%
    08:00 +12°C° 0 mm 3 mps 749 mmHg 57%
    09:00 +13°C° 0 mm 3 mps 750 mmHg 53%
    10:00 +14°C° 0 mm 3 mps 750 mmHg 49%
    11:00 +14°C° 0 mm 3 mps 751 mmHg 47%
    12:00 +16°C° 0 mm 3 mps 751 mmHg 46%
    13:00 +16°C° 0 mm 3 mps 751 mmHg 44%
    14:00 +16°C° 0 mm 3 mps 751 mmHg 43%
    15:00 +17°C° 0 mm 3 mps 751 mmHg 42%
    16:00 +17°C° 0 mm 3 mps 751 mmHg 41%
    17:00 +16°C° 0 mm 2 mps 752 mmHg 45%
    18:00 +15°C° 0 mm 2 mps 752 mmHg 49%
    19:00 +15°C° 0 mm 1 mps 753 mmHg 54%
    20:00 +13°C° 0 mm 1 mps 753 mmHg 60%
    21:00 +12°C° 0 mm 1 mps 754 mmHg 66%
    22:00 +10°C° 0 mm 1 mps 755 mmHg 72%
    23:00 +9°C° 0 mm 1 mps 755 mmHg 76%

    10 December, Saturday

    Time Temperature Precipitation Wind Pressure Humidity
    00:00 +9°C° 0 mm 1 mps 755 mmHg 79%
    01:00 +8°C° 0 mm 1 mps 755 mmHg 83%
    02:00 +8°C° 0 mm 1 mps 755 mmHg 85%
    03:00 +7°C° 0 mm 1 mps 755 mmHg 87%
    04:00 +7°C° 0 mm 1 mps 755 mmHg 89%
    05:00 +9°C° 0 mm 1 mps 755 mmHg 82%
    06:00 +10°C° 0 mm 1 mps 756 mmHg 76%
    07:00 +11°C° 0 mm 1 mps 756 mmHg 69%
    08:00 +14°C° 0 mm 1 mps 756 mmHg 59%
    09:00 +18°C° 0 mm 1 mps 756 mmHg 48%
    10:00 +21°C° 0 mm 1 mps 756 mmHg 38%
    11:00 +22°C° 0 mm 1 mps 755 mmHg 34%
    12:00 +24°C° 0 mm 1 mps 754 mmHg 30%
    13:00 +25°C° 0 mm 1 mps 754 mmHg 27%
    14:00 +26°C° 0 mm 1 mps 753 mmHg 27%
    15:00 +26°C° 0 mm 1 mps 753 mmHg 27%
    16:00 +26°C° 0 mm 1 mps 752 mmHg 27%
    17:00 +24°C° 0 mm 1 mps 752 mmHg 34%
    18:00 +22°C° 0 mm 1 mps 753 mmHg 41%
    19:00 +21°C° 0 mm 1 mps 753 mmHg 48%
    20:00 +19°C° 0 mm 1 mps 753 mmHg 54%
    21:00 +18°C° 0 mm 1 mps 754 mmHg 59%
    22:00 +15°C° 0 mm 2 mps 754 mmHg 65%
    23:00 +14°C° 0 mm 1 mps 754 mmHg 70%

    11 December, Sunday

    Time Temperature Precipitation Wind Pressure Humidity
    00:00 +14°C° 0 mm 1 mps 754 mmHg 74%
    01:00 +13°C° 0 mm 1 mps 754 mmHg 78%
    02:00 +12°C° 0 mm 1 mps 754 mmHg 80%
    03:00 +12°C° 0 mm 1 mps 754 mmHg 82%
    04:00 +12°C° 0 mm 1 mps 754 mmHg 83%
    05:00 +13°C° 0 mm 1 mps 754 mmHg 79%
    06:00 +14°C° 0 mm 1 mps 755 mmHg 74%
    07:00 +15°C° 0 mm 1 mps 755 mmHg 69%
    08:00 +18°C° 0 mm 1 mps 755 mmHg 59%
    09:00 +21°C° 0 mm 1 mps 755 mmHg 50%
    10:00 +24°C° 0 mm 1 mps 755 mmHg 40%
    11:00 +25°C° 0 mm 1 mps 755 mmHg 36%
    12:00 +26°C° 0 mm 2 mps 754 mmHg 32%
    13:00 +28°C° 0 mm 2 mps 754 mmHg 28%
    14:00 +28°C° 0 mm 2 mps 753 mmHg 27%
    15:00 +28°C° 0 mm 2 mps 753 mmHg 26%
    16:00 +28°C° 0 mm 2 mps 752 mmHg 26%
    17:00 +26°C° 0 mm 2 mps 753 mmHg 31%
    18:00 +24°C° 0 mm 2 mps 753 mmHg 37%
    19:00 +23°C° 0 mm 2 mps 753 mmHg 42%
    20:00 +20°C° 0 mm 2 mps 754 mmHg 49%
    21:00 +18°C° 0 mm 2 mps 754 mmHg 56%
    22:00 +16°C° 0 mm 2 mps 754 mmHg 63%
    23:00 +15°C° 0 mm 2 mps 754 mmHg 68%
    Show more